Regional Weather Roundup
Issued by NWS

Home | Current Version | Previous Version | Graphics & Text | Print | Product List | Glossary On
Versions: 1 2 3 4 5 6 7 8 9 10 11 12 13 14 15 16 17 18 19 20 21 22 23 24 25 26 27 28
000
ASUS45 KTFX 232110
RWRMT
MONTANA REGIONAL WEATHER ROUNDUP
NATIONAL WEATHER SERVICE GREAT FALLS MT
300 PM MDT TUE MAY 23 2017

NOTE: "FAIR" INDICATES FEW OR NO CLOUDS BELOW 12000 FEET WITH NO
SIGNIFICANT WEATHER AND/OR OBSTRUCTIONS TO VISIBILITY.

MTZ001>007-043-232200-
WEST OF THE DIVIDE

CITY           SKY/WX    TMP DP  RH WIND       PRES   REMARKS
KALISPELL      SUNNY     78  47  33 S16       29.90F
MISSOULA       SUNNY     79  41  25 NE6       29.96F
BUTTE          SUNNY     75  38  26 VRB5      30.07F
MULLAN PASS    SUNNY     64  34  32 VRB6      30.10F
ANACONDA         N/A     77  32  19 W8G18     30.01F
DEER LODGE       N/A     73  39  29 N6        30.03F
EUREKA           N/A     81  43  26 SE6       29.85F
HAMILTON         N/A     81  25  12 W7        29.98F
PLAINS           N/A     82  53  36 CALM      29.91F
RONAN            N/A     79  42  26 SE5       30.00F
$$

MTZ008-052>055-232200-
SOUTHWEST MONTANA

CITY           SKY/WX    TMP DP  RH WIND       PRES   REMARKS
BOZEMAN        SUNNY     73  40  30 E5        30.04F
DILLON         SUNNY     74  40  29 S7        30.05F
W YELLOWSTONE  SUNNY     66  34  30 SW8G18    30.17F
ENNIS          SUNNY     72  39  30 S5G12     30.13F
THREE FORKS      N/A     75  40  28 S2        30.02F
TWIN BRIDGES     N/A     74  38  27 S5        30.04F
$$

MTZ009-010-012-014-046-048-049-054-232200-
EAST SLOPES AND CENTRAL MONTANA

CITY           SKY/WX    TMP DP  RH WIND       PRES   REMARKS
CUT BANK       MOSUNNY   78  39  24 W12       29.88F
GREAT FALLS    SUNNY     78  42  27 SW14G22   29.92F
MALMSTROM AFB  CLOUDY    77  45  31 SW10G22   29.92F
HELENA         SUNNY     78  44  29 E8        29.97F
CHOTEAU          N/A     77  43  29 SW7       29.93F
CONRAD           N/A     81  57  43 SW8       29.94F
$$

MTZ011-013-016-021-045-047-050-051-232200-
NORTH CENTRAL MONTANA

CITY           SKY/WX    TMP DP  RH WIND       PRES   REMARKS
HAVRE          SUNNY     81  37  20 SW12G21   29.89F
LEWISTOWN      SUNNY     72  41  32 SW7       29.99F
N BAR RANCH      N/A     70  43  37 S16G24    30.05F
CHINOOK          N/A     79  39  24 SE8G16    29.89F
$$

MTZ017>020-022>027-061-062-232200-
NORTHEAST MONTANA

CITY           SKY/WX    TMP DP  RH WIND       PRES   REMARKS
GLASGOW        CLOUDY    70  31  23 SE18      29.99F
JORDAN           N/A     70  28  21 SW13G21   30.02F
SIDNEY         SUNNY     71  28  20 VRB5      30.04F
WOLF POINT     SUNNY     75  28  17 S9        30.00F
MALTA          SUNNY     73  32  21 S9G17     29.95F
PLENTYWOOD       N/A     70  30  23 W8G25     30.01F
POPLAR           N/A     73  30  20 S6        30.01F
SCOBEY           N/A     72  33  23 SE2       29.99F
$$

MTZ028>42-056>058-232200-
SOUTHCENTRAL AND SOUTHEAST MONTANA

CITY           SKY/WX    TMP DP  RH WIND       PRES   REMARKS
BAKER          SUNNY     67  31  26 NE8       30.08F
BILLINGS       MOSUNNY   70  35  27 S6        30.04F
LIVINGSTON     SUNNY     74  41  30 SW10G18   30.03F
MILES CITY     SUNNY     70  31  23 S5        30.05F
BIG TIMBER     SUNNY     72  41  33 SW10      30.05F
EKALAKA          N/A     63  33  32 NE6       30.07F
FORSYTH          N/A     70  34  26 SE8       30.04F
LAUREL           N/A     71  39  31 SE3       30.02F
ROUNDUP          N/A     72  35  25 E3        29.94F
$$

REGIONAL REPORTS...DAKOTAS

CITY           SKY/WX    TMP DP  RH WIND       PRES   REMARKS
WILLISTON      SUNNY     72  32  23 S9        30.05F
MINOT          SUNNY     68  33  27 NE12G20   30.03F
DICKINSON      SUNNY     63  32  31 NE8       30.05F
BEACH            N/A     66  30  26 E8        30.09F
TIOGA            N/A     66  28  24 SE8       30.06F
WATFORD CITY     N/A     66  32  28 E6G14     30.05F
BISMARCK       CLOUDY    64  34  32 N13       30.04F
GRAND FORKS    PTSUNNY   62  44  51 N18       29.97F
FARGO          PTSUNNY   59  45  59 NE21G28   29.95S
BUFFALO SD       N/A     67  35  30 N12G20    30.02F
RAPID CITY     MOSUNNY   63  34  33 N20G33    30.07F
$$

REGIONAL REPORTS...WYOMING/IDAHO/WASHINGTON

CITY           SKY/WX    TMP DP  RH WIND       PRES   REMARKS
GILLETTE       SUNNY     61  33  35 SW5       30.12F
SHERIDAN       MOSUNNY   65  37  35 SE6       30.10F
BUFFALO WY     MOSUNNY   62  33  33 NW6       30.14F
CODY           SUNNY     68  36  30 E8G16     30.10F
YELLOWSTONE LA   N/A     54  31  41 VRB3      30.25F
IDAHO FALLS    SUNNY     74  38  27 S7        30.12F
SALMON         SUNNY     75  45  33 N7        30.00F
BOISE          SUNNY     83  40  21 VRB5      30.03F
SPOKANE        MOSUNNY   79  43  27 W9        29.93F
$$

REGIONAL REPORTS...ALBERTA

CITY           SKY/WX    TMP DP  RH WIND       PRES   REMARKS
EDMONTON       MOSUNNY   82  43  24 W7        29.61F
CALGARY        PTSUNNY   77  34  20 SW16      29.75F
LETHBRIDGE     PTSUNNY   82  43  24 W17G25    29.80F
MEDICINE HAT   PTSUNNY   81  43  26 S18G25    29.77F
WATERTON GATE    N/A     70  39  32 SW18G24     N/A
CARDSTON         N/A     75  41  29 W13G20      N/A
MILK RIVER       N/A     82  43  24 W8          N/A
$$

REGIONAL REPORTS...SASKATCHEWAN

CITY           SKY/WX    TMP DP  RH WIND       PRES   REMARKS
SWIFT CURRENT  SUNNY     73  25  16 SW24      29.89
REGINA         PTSUNNY   73  32  21 SW12G22   29.94F
SASKATOON      PTSUNNY   73  34  23 S16       29.86F
CYPRESS HILLS    N/A     70  34  26 S16G24      N/A
VAL MARIE        N/A     72  25  17 S20G25      N/A
ROCKGLEN         N/A     68  27  21 S17G25      N/A
ASSINIBOIA       N/A     84  30  14 SW14G21     N/A
$$




USA.gov is the U.S. government's official web portal to all federal, state and local government web resources and services.